Location: Northam
(31.6525°S, 116.6655°E)
Time: 08:51:16
(UTC+08:00)

BEESAT - Visible Passes

Search period start: 26 July 2021 00:00
Search period end: 05 August 2021 00:00
Orbit: 700 x 708 km, 98.6° (Epoch: 25 July)

Date Brightness Start Highest point End Pass type
(mag) Time Alt. Az. Time Alt. Az. Time Alt. Az.
26 Jul ? 18:39:42 10° NNE 18:44:27 66° ESE 18:49:15 10° S visible
27 Jul ? 19:23:11 10° N 19:27:41 40° W 19:32:13 10° SSW visible
28 Jul ? 18:28:38 10° NNE 18:33:14 48° ESE 18:37:53 10° S visible
28 Jul ? 20:08:53 10° WNW 20:11:09 13° W 20:13:26 10° WSW visible
29 Jul ? 06:34:35 10° SE 06:37:51 18° E 06:41:06 10° NE visible
29 Jul ? 19:11:43 10° N 19:16:24 54° W 19:21:09 10° SSW visible
30 Jul ? 18:17:41 10° NE 18:22:03 36° ESE 18:26:27 10° S visible
30 Jul ? 19:56:33 10° NW 19:59:49 18° W 20:03:05 10° SW visible
31 Jul ? 06:24:13 10° ESE 06:26:31 13° E 06:28:47 10° ENE visible
31 Jul ? 19:00:22 10° N 19:05:08 74° WNW 19:09:59 10° SSW visible
01 Aug ? 18:06:52 10° NE 18:10:52 27° ESE 18:14:55 10° SSE visible
01 Aug ? 19:44:37 10° NNW 19:48:29 24° W 19:52:23 10° SW visible
02 Aug ? 18:49:06 10° NNE 18:53:54 82° ESE 18:58:44 10° S visible
03 Aug ? 17:56:11 10° ENE 17:59:43 21° ESE 18:03:16 10° SSE visible
03 Aug ? 19:32:53 10° NNW 19:37:10 32° W 19:41:29 10° SW visible
04 Aug ? 18:37:57 10° NNE 18:42:40 60° ESE 18:47:26 10° S visible
04 Aug ? 20:19:55 10° WNW 20:20:41 10° W 20:21:27 10° W visible
